Date String (YYYY-MM-DD hh:mm:ss) UTC,Instrument flags,Ambient pressure (hPa),Sample flow (lpm),Bypass flow (lpm),Sample temperature (°C),Ambient temperature (°C),ASC tube jacket temperature (°C),LED temperature (°C),Box temperature (°C),Sample RH (%),Span deviation,Mass concentration (μg/m³),Mass concentration (μg/m³),Mass concentration (μg/m³)
DateTimeUTC,F1_M11,P_M11,Q1_M11,Q2_M11,T1_M11,T2_M11,T3_M11,T4_M11,T5_M11,U1_M11,ZSPAN_M11,X0_M11,X2_M11,X1_M11
2021-11-25 20:00:00,,0832.3,5.01,0.00,26.7,26.1,00.0,35.5,28.6,08.4,0000.0,0008.53,0003.71,0003.34
2021-11-25 20:01:00,,0832.4,5.00,0.00,26.8,26.1,00.0,35.6,28.7,08.1,0000.0,0008.21,0003.66,0003.31
2021-11-25 20:02:00,,0832.4,4.99,0.00,26.8,26.1,00.0,35.6,28.7,08.1,0000.0,0008.05,0003.67,0003.31
2021-11-25 20:03:00,,0832.4,5.01,0.00,26.8,26.1,00.0,35.6,28.7,08.1,0000.0,0008.16,0003.70,0003.31
2021-11-25 20:04:00,,0832.3,4.99,0.00,26.8,26.1,00.0,35.6,28.7,08.0,0000.0,0009.23,0003.69,0003.31
2021-11-25 20:05:00,,0832.4,5.01,0.00,26.9,26.2,00.0,35.7,28.7,08.1,0000.0,0009.33,0003.71,0003.31
2021-11-25 20:06:00,,0832.3,4.99,0.00,26.9,26.2,00.0,35.7,28.8,08.1,0000.0,0008.85,0003.73,0003.31
2021-11-25 20:07:00,,0832.2,5.00,0.00,26.9,26.2,00.0,35.7,28.8,08.0,0000.0,0009.55,0003.74,0003.32
2021-11-25 20:08:00,,0832.3,5.01,0.00,26.9,26.2,00.0,35.7,28.8,07.8,0000.0,0009.96,0003.71,0003.31
2021-11-25 20:09:00,,0832.3,4.99,0.00,26.9,26.2,00.0,35.7,28.8,07.8,0000.0,0009.99,0003.71,0003.29
2021-11-25 20:10:00,,0832.3,5.00,0.00,26.9,26.2,00.0,35.8,28.8,07.9,0000.0,0009.98,0003.72,0003.30
2021-11-25 20:11:00,,0832.3,5.02,0.00,27.0,26.2,00.0,35.8,28.8,07.9,0000.0,0009.90,0003.72,0003.31
2021-11-25 20:12:00,,0832.4,4.98,0.00,27.0,26.2,00.0,35.8,28.9,07.9,0000.0,0009.94,0003.76,0003.33
2021-11-25 20:13:00,,0832.4,5.01,0.00,27.0,26.3,00.0,35.8,28.8,07.4,0000.0,0010.00,0003.74,0003.32
2021-11-25 20:14:00,,0832.3,4.99,0.00,27.0,26.3,00.0,35.9,28.9,07.6,0000.0,0010.18,0003.70,0003.31
2021-11-25 20:15:00,,0832.3,5.00,0.00,27.0,26.3,00.0,35.9,28.9,07.8,0000.0,0009.30,0003.70,0003.33
2021-11-25 20:16:00,,0832.3,5.00,0.00,27.0,26.3,00.0,35.9,28.9,07.7,0000.0,0009.42,0003.70,0003.34
2021-11-25 20:17:00,,0832.3,5.00,0.00,27.0,26.3,00.0,35.9,28.9,07.7,0000.0,0009.68,0003.71,0003.35
2021-11-25 20:18:00,,0832.4,5.01,0.00,27.1,26.3,00.0,35.9,28.9,07.7,0000.0,0009.32,0003.71,0003.36
2021-11-25 20:19:00,,0832.4,4.99,0.00,27.1,26.4,00.0,35.9,29.0,07.5,0000.0,0008.93,0003.72,0003.36
2021-11-25 20:20:00,,0832.4,5.01,0.00,27.1,26.4,00.0,36.0,29.0,06.7,0000.0,0009.49,0003.70,0003.33
2021-11-25 20:21:00,,0832.5,5.00,0.00,27.1,26.4,00.0,36.0,29.0,06.5,0000.0,0009.60,0003.65,0003.27
2021-11-25 20:22:00,,0832.5,4.99,0.00,27.1,26.4,00.0,36.0,29.0,07.4,0000.0,0010.24,0003.64,0003.25
2021-11-25 20:23:00,,0832.5,5.01,0.00,27.2,26.5,00.0,36.0,29.0,07.8,0000.0,0010.34,0003.66,0003.27
2021-11-25 20:24:00,,0832.4,4.98,0.00,27.2,26.5,00.0,36.0,29.1,07.7,0000.0,0010.33,0003.69,0003.32
2021-11-25 20:25:00,,0832.4,5.00,0.00,27.2,26.5,00.0,36.1,29.1,07.7,0000.0,0009.99,0003.76,0003.38
2021-11-25 20:26:00,,0832.4,4.99,0.00,27.2,26.5,00.0,36.1,29.1,07.7,0000.0,0009.77,0003.86,0003.40
2021-11-25 20:27:00,,0832.4,4.98,0.00,27.3,26.5,00.0,36.1,29.1,07.6,0000.0,0009.82,0003.92,0003.43
2021-11-25 20:28:00,,0832.3,5.00,0.00,27.3,26.6,00.0,36.1,29.1,07.6,0000.0,0009.47,0003.93,0003.46
2021-11-25 20:29:00,,0832.3,5.01,0.00,27.3,26.6,00.0,36.1,29.2,07.7,0000.0,0009.49,0003.94,0003.49
2021-11-25 20:30:00,,0832.3,5.00,0.00,27.3,26.6,00.0,36.2,29.2,07.3,0000.0,0009.57,0003.95,0003.51
2021-11-25 20:31:00,,0832.4,4.99,0.00,27.3,26.6,00.0,36.2,29.2,06.9,0000.0,0009.09,0003.96,0003.53
2021-11-25 20:32:00,,0832.3,5.00,0.00,27.4,26.6,00.0,36.2,29.2,06.9,0000.0,0009.02,0003.98,0003.56
2021-11-25 20:33:00,,0832.3,5.01,0.00,27.4,26.7,00.0,36.2,29.3,07.3,0000.0,0008.61,0004.01,0003.58
2021-11-25 20:34:00,,0832.2,5.00,0.00,27.4,26.7,00.0,36.2,29.3,07.2,0000.0,0008.45,0003.97,0003.55
2021-11-25 20:35:00,,0832.2,4.99,0.00,27.4,26.7,00.0,36.3,29.3,07.3,0000.0,0008.58,0003.93,0003.51
2021-11-25 20:36:00,,0832.2,5.00,0.00,27.4,26.7,00.0,36.3,29.3,07.3,0000.0,0008.55,0003.88,0003.48
2021-11-25 20:37:00,,0832.1,5.00,0.00,27.4,26.8,00.0,36.3,29.3,07.4,0000.0,0008.36,0003.82,0003.47
2021-11-25 20:38:00,,0832.1,5.00,0.00,27.5,26.8,00.0,36.3,29.3,07.5,0000.0,0009.06,0003.81,0003.46
2021-11-25 20:39:00,,0832.1,4.99,0.00,27.5,26.8,00.0,36.3,29.3,07.5,0000.0,0009.09,0003.82,0003.45
2021-11-25 20:40:00,,0832.1,5.00,0.00,27.5,26.8,00.0,36.3,29.4,07.4,0000.0,0009.00,0003.84,0003.45
2021-11-25 20:41:00,,0832.0,5.01,0.00,27.5,26.8,00.0,36.4,29.4,07.4,0000.0,0008.81,0003.85,0003.45
2021-11-25 20:42:00,,0832.1,5.00,0.00,27.5,26.8,00.0,36.4,29.4,07.3,0000.0,0009.01,0003.88,0003.49
2021-11-25 20:43:00,,0832.1,5.00,0.00,27.5,26.8,00.0,36.4,29.4,07.3,0000.0,0009.75,0003.95,0003.54
2021-11-25 20:44:00,,0832.1,5.00,0.00,27.6,26.9,00.0,36.4,29.4,07.2,0000.0,0009.67,0003.97,0003.56
2021-11-25 20:45:00,,0832.0,5.01,0.00,27.6,26.9,00.0,36.4,29.4,07.2,0000.0,0009.93,0004.00,0003.57
2021-11-25 20:46:00,,0832.1,5.00,0.00,27.6,26.9,00.0,36.5,29.5,07.1,0000.0,0009.73,0004.04,0003.58
2021-11-25 20:47:00,,0832.0,5.01,0.00,27.6,26.9,00.0,36.5,29.5,06.9,0000.0,0009.85,0004.01,0003.55
2021-11-25 20:48:00,,0832.0,5.01,0.00,27.6,27.0,00.0,36.5,29.5,07.0,0000.0,0010.56,0003.99,0003.53
2021-11-25 20:49:00,,0832.1,4.99,0.00,27.7,27.0,00.0,36.5,29.5,06.6,0000.0,0010.04,0003.91,0003.47
2021-11-25 20:50:00,,0832.1,4.99,0.00,27.7,27.0,00.0,36.6,29.6,06.5,0000.0,0009.55,0003.83,0003.39
2021-11-25 20:51:00,,0832.1,5.01,0.00,27.7,27.0,00.0,36.6,29.6,06.5,0000.0,0009.26,0003.71,0003.30
2021-11-25 20:52:00,,0832.1,4.99,0.00,27.7,27.1,00.0,36.6,29.6,06.7,0000.0,0009.24,0003.67,0003.23
2021-11-25 20:53:00,,0832.1,5.00,0.00,27.7,27.1,00.0,36.6,29.6,06.9,0000.0,0009.07,0003.65,0003.19
2021-11-25 20:54:00,,0832.2,5.00,0.00,27.8,27.1,00.0,36.6,29.6,06.8,0000.0,0008.27,0003.59,0003.15
2021-11-25 20:55:00,,0832.1,5.01,0.00,27.8,27.1,00.0,36.7,29.6,06.7,0000.0,0008.13,0003.53,0003.09
2021-11-25 20:56:00,,0832.2,4.99,0.00,27.8,27.2,00.0,36.7,29.7,05.7,0000.0,0007.83,0003.40,0002.90
2021-11-25 20:57:00,,0832.1,5.01,0.00,27.8,27.2,00.0,36.7,29.7,05.4,0000.0,0007.64,0003.24,0002.64
2021-11-25 20:58:00,,0832.2,5.00,0.00,27.8,27.2,00.0,36.7,29.7,05.4,0000.0,0006.94,0003.09,0002.41
2021-11-25 20:59:00,,0832.2,5.00,0.00,27.8,27.2,00.0,36.7,29.7,05.3,0000.0,0005.16,0002.82,0002.18
